timestamp,wind_dir_avg,wind_spd_avg,wind_spd_max_dir,wind_spd_gust,battery_voltage,lat,long
2021-01-18 00:04:01+00:00,220.0,8.05,218.0,9.45,12.33,47.59359,-54.27349
2021-01-18 00:14:01+00:00,220.0,7.82,224.0,9.23,12.33,47.59359,-54.27349
2021-01-18 00:24:01+00:00,213.0,6.32,218.0,7.36,12.33,47.59359,-54.27349
2021-01-18 00:34:01+00:00,212.0,4.8,222.0,6.1,12.33,47.59359,-54.27349
2021-01-18 00:44:01+00:00,203.0,5.7,203.0,6.26,12.33,47.59359,-54.27349
2021-01-18 00:54:01+00:00,203.0,6.24,202.0,6.87,12.33,47.59359,-54.27349
2021-01-18 01:04:01+00:00,204.0,7.19,205.0,8.46,12.33,47.59359,-54.27349
2021-01-18 01:14:01+00:00,210.0,6.66,215.0,7.47,12.33,47.59359,-54.27349
2021-01-18 01:24:01+00:00,210.0,6.45,210.0,7.76,12.33,47.59359,-54.27349
2021-01-18 01:34:01+00:00,206.0,5.06,201.0,5.96,12.33,47.59359,-54.27349
2021-01-18 01:44:01+00:00,213.0,5.63,219.0,6.73,12.33,47.59359,-54.27349
2021-01-18 01:54:01+00:00,224.0,4.75,237.0,5.63,12.33,47.59359,-54.27349
2021-01-18 02:04:01+00:00,216.0,6.22,215.0,7.14,12.33,47.59359,-54.27349
2021-01-18 02:14:01+00:00,231.0,6.96,230.0,8.31,12.33,47.59359,-54.27349
2021-01-18 02:24:01+00:00,214.0,6.08,215.0,6.86,12.33,47.59359,-54.27349
2021-01-18 02:34:01+00:00,206.0,6.13,210.0,6.94,12.33,47.59359,-54.27349
2021-01-18 02:44:01+00:00,208.0,5.98,212.0,6.77,12.33,47.59359,-54.27349
2021-01-18 02:54:01+00:00,212.0,5.94,213.0,6.79,12.33,47.59359,-54.27349
2021-01-18 03:04:01+00:00,205.0,5.96,201.0,7.5,12.33,47.59359,-54.27349
2021-01-18 03:14:01+00:00,207.0,5.59,208.0,6.14,12.25,47.59359,-54.27349
2021-01-18 03:24:01+00:00,207.0,5.63,205.0,6.18,12.25,47.59359,-54.27349
2021-01-18 03:34:01+00:00,204.0,5.96,211.0,6.79,12.25,47.59359,-54.27349
2021-01-18 03:44:01+00:00,203.0,6.64,201.0,8.61,12.25,47.59359,-54.27349
2021-01-18 03:54:01+00:00,209.0,6.71,212.0,7.87,12.25,47.59359,-54.27349
2021-01-18 04:04:01+00:00,207.0,6.31,209.0,7.56,12.25,47.59359,-54.27349
2021-01-18 04:14:01+00:00,212.0,6.37,214.0,7.37,12.33,47.59359,-54.27349
2021-01-18 04:24:01+00:00,215.0,6.26,219.0,7.44,12.33,47.59359,-54.27349
2021-01-18 04:34:01+00:00,212.0,6.46,220.0,7.5,12.33,47.59359,-54.27349
2021-01-18 04:44:01+00:00,212.0,6.06,215.0,6.67,12.33,47.59359,-54.27349
2021-01-18 04:54:01+00:00,207.0,5.93,211.0,6.76,12.33,47.59359,-54.27349
2021-01-18 05:04:01+00:00,213.0,6.52,213.0,7.55,12.33,47.59359,-54.27349
2021-01-18 05:14:01+00:00,213.0,5.83,215.0,6.62,12.25,47.59359,-54.27349
2021-01-18 05:24:01+00:00,213.0,5.82,215.0,6.69,12.25,47.59359,-54.27349
2021-01-18 05:34:01+00:00,216.0,6.92,216.0,7.66,12.25,47.59359,-54.27349
2021-01-18 05:44:01+00:00,213.0,8.64,214.0,10.56,12.25,47.59359,-54.27349
2021-01-18 05:54:01+00:00,215.0,9.57,220.0,10.72,12.25,47.59359,-54.27349
2021-01-18 06:04:01+00:00,210.0,8.23,213.0,9.08,12.25,47.59359,-54.27349
2021-01-18 06:14:01+00:00,211.0,8.18,218.0,9.18,12.25,47.59359,-54.27349
2021-01-18 06:24:01+00:00,214.0,9.04,216.0,10.39,12.25,47.59359,-54.27349
2021-01-18 06:34:01+00:00,217.0,10.56,212.0,12.51,12.25,47.59359,-54.27349
2021-01-18 06:44:01+00:00,214.0,10.59,213.0,11.71,12.25,47.59359,-54.27349
2021-01-18 06:54:01+00:00,215.0,9.9,221.0,11.17,12.25,47.59359,-54.27349
2021-01-18 07:04:01+00:00,217.0,9.45,216.0,11.31,12.25,47.59359,-54.27349
2021-01-18 07:14:01+00:00,217.0,7.65,215.0,8.8,12.25,47.59359,-54.27349
2021-01-18 07:24:01+00:00,225.0,7.55,217.0,9.19,12.25,47.59359,-54.27349
2021-01-18 07:34:01+00:00,226.0,8.61,232.0,10.39,12.25,47.59359,-54.27349
2021-01-18 07:44:01+00:00,222.0,7.69,225.0,8.91,12.25,47.59359,-54.27349
2021-01-18 07:54:01+00:00,228.0,8.59,230.0,10.04,12.25,47.59359,-54.27349
2021-01-18 08:04:01+00:00,221.0,8.41,223.0,9.68,12.25,47.59359,-54.27349
2021-01-18 08:14:01+00:00,227.0,7.66,227.0,9.15,12.25,47.59359,-54.27349
2021-01-18 08:24:01+00:00,224.0,9.38,224.0,10.74,12.25,47.59359,-54.27349
2021-01-18 08:34:01+00:00,227.0,9.24,228.0,10.46,12.25,47.59359,-54.27349
2021-01-18 08:44:01+00:00,217.0,8.28,219.0,8.94,12.25,47.59359,-54.27349
2021-01-18 08:54:01+00:00,214.0,9.98,212.0,11.58,12.25,47.59359,-54.27349
2021-01-18 09:04:01+00:00,214.0,10.45,214.0,11.52,12.25,47.59359,-54.27349
2021-01-18 09:14:01+00:00,214.0,10.31,213.0,11.72,12.25,47.59359,-54.27349
2021-01-18 09:24:01+00:00,216.0,9.91,222.0,12.06,12.25,47.59359,-54.27349
2021-01-18 09:34:01+00:00,223.0,8.26,221.0,9.31,12.25,47.59359,-54.27349
2021-01-18 09:44:01+00:00,221.0,8.38,220.0,9.29,12.25,47.59359,-54.27349
2021-01-18 09:54:01+00:00,221.0,8.72,221.0,9.9,12.25,47.59359,-54.27349
2021-01-18 10:04:01+00:00,216.0,10.4,216.0,11.48,12.25,47.59359,-54.27349
2021-01-18 10:14:01+00:00,224.0,9.0,232.0,10.02,12.25,47.59359,-54.27349
2021-01-18 10:24:01+00:00,230.0,9.55,232.0,11.07,12.25,47.59359,-54.27349
2021-01-18 10:34:01+00:00,227.0,9.71,223.0,10.69,12.25,47.59359,-54.27349
2021-01-18 10:44:01+00:00,230.0,11.01,235.0,13.99,12.25,47.59359,-54.27349
2021-01-18 10:54:01+00:00,222.0,9.41,226.0,10.41,12.25,47.59359,-54.27349
2021-01-18 11:04:01+00:00,217.0,9.21,216.0,10.81,12.25,47.59359,-54.27349
2021-01-18 11:14:01+00:00,218.0,9.45,218.0,10.43,12.25,47.59359,-54.27349
2021-01-18 11:24:01+00:00,225.0,9.62,222.0,11.52,12.25,47.59359,-54.27349
2021-01-18 11:34:01+00:00,230.0,9.55,240.0,11.46,12.25,47.59359,-54.27349
2021-01-18 11:44:01+00:00,228.0,10.09,222.0,11.79,12.25,47.59359,-54.27349
2021-01-18 11:54:01+00:00,225.0,8.92,221.0,10.4,12.25,47.59359,-54.27349
2021-01-18 12:04:01+00:00,224.0,8.94,227.0,10.0,12.25,47.59359,-54.27349
2021-01-18 12:14:01+00:00,230.0,9.87,240.0,11.09,12.33,47.59359,-54.27349
2021-01-18 12:24:01+00:00,229.0,9.57,228.0,11.6,12.33,47.59359,-54.27349
2021-01-18 12:34:01+00:00,222.0,8.04,226.0,9.68,12.33,47.59359,-54.27349
2021-01-18 12:44:01+00:00,226.0,8.63,222.0,10.01,12.33,47.59359,-54.27349
2021-01-18 12:54:01+00:00,229.0,9.94,233.0,11.77,12.33,47.59359,-54.27349
2021-01-18 13:04:01+00:00,229.0,8.83,232.0,9.89,12.33,47.59359,-54.27349
2021-01-18 13:14:01+00:00,224.0,9.0,223.0,10.35,13.05,47.59359,-54.27349
2021-01-18 13:24:01+00:00,227.0,9.48,224.0,10.84,13.05,47.59359,-54.27349
2021-01-18 13:34:01+00:00,227.0,8.23,228.0,9.81,13.05,47.59359,-54.27349
2021-01-18 13:44:01+00:00,229.0,8.77,230.0,10.45,13.05,47.59359,-54.27349
2021-01-18 13:54:01+00:00,222.0,8.85,230.0,9.97,13.05,47.59359,-54.27349
2021-01-18 14:04:01+00:00,232.0,9.03,232.0,11.1,13.05,47.59359,-54.27349
2021-01-18 14:14:01+00:00,227.0,8.14,228.0,9.2,14.32,47.59359,-54.27349
2021-01-18 14:24:01+00:00,233.0,9.54,233.0,11.06,14.32,47.59359,-54.27349
2021-01-18 14:34:01+00:00,230.0,9.94,235.0,12.04,14.32,47.59359,-54.27349
2021-01-18 14:44:01+00:00,229.0,9.62,223.0,11.49,14.32,47.59359,-54.27349
2021-01-18 14:54:01+00:00,228.0,8.56,224.0,10.08,14.32,47.59359,-54.27349
2021-01-18 15:04:01+00:00,229.0,9.04,230.0,11.05,14.32,47.59359,-54.27349
2021-01-18 15:14:01+00:00,228.0,8.94,221.0,10.61,13.84,47.59359,-54.27349
2021-01-18 15:24:01+00:00,228.0,9.23,229.0,11.26,13.84,47.59359,-54.27349
2021-01-18 15:34:01+00:00,226.0,8.5,234.0,10.23,13.84,47.59359,-54.27349
2021-01-18 15:44:01+00:00,218.0,7.22,217.0,8.42,13.84,47.59359,-54.27349
2021-01-18 15:54:01+00:00,209.0,9.07,213.0,10.12,13.84,47.59359,-54.27349
2021-01-18 16:04:01+00:00,214.0,9.78,216.0,11.88,13.84,47.59359,-54.27349
2021-01-18 16:14:01+00:00,215.0,8.73,212.0,9.97,13.37,47.59359,-54.27349
2021-01-18 16:24:01+00:00,216.0,8.43,217.0,9.25,13.37,47.59359,-54.27349
2021-01-18 16:34:01+00:00,214.0,8.1,217.0,9.07,13.37,47.59359,-54.27349
2021-01-18 16:44:01+00:00,221.0,8.49,222.0,9.84,13.37,47.59359,-54.27349
2021-01-18 16:54:01+00:00,225.0,9.52,223.0,12.03,13.37,47.59359,-54.27349
2021-01-18 17:04:01+00:00,224.0,8.81,221.0,10.35,13.37,47.59359,-54.27349
2021-01-18 17:14:01+00:00,224.0,7.95,234.0,9.4,13.37,47.59359,-54.27349
2021-01-18 17:24:01+00:00,212.0,9.24,214.0,10.95,13.37,47.59359,-54.27349
2021-01-18 17:34:01+00:00,210.0,10.1,213.0,11.92,13.37,47.59359,-54.27349
2021-01-18 17:44:01+00:00,214.0,11.14,208.0,12.49,13.37,47.59359,-54.27349
2021-01-18 17:54:01+00:00,212.0,10.01,211.0,11.62,13.37,47.59359,-54.27349
2021-01-18 18:04:01+00:00,216.0,11.28,217.0,12.96,13.37,47.59359,-54.27349
2021-01-18 18:14:01+00:00,213.0,9.45,212.0,10.28,13.13,47.59359,-54.27349
2021-01-18 18:24:01+00:00,213.0,11.64,209.0,13.91,13.13,47.59359,-54.27349
2021-01-18 18:34:01+00:00,216.0,10.87,220.0,12.67,13.13,47.59359,-54.27349
2021-01-18 18:44:01+00:00,215.0,11.0,216.0,12.49,13.13,47.59359,-54.27349
2021-01-18 18:54:01+00:00,214.0,11.11,215.0,12.46,13.13,47.59359,-54.27349
2021-01-18 19:04:01+00:00,213.0,10.31,212.0,11.45,13.13,47.59359,-54.27349
2021-01-18 19:14:01+00:00,216.0,10.23,218.0,11.69,12.89,47.59359,-54.27349
2021-01-18 19:24:01+00:00,218.0,10.48,217.0,12.3,12.89,47.59359,-54.27349
2021-01-18 19:34:01+00:00,212.0,9.72,214.0,11.1,12.89,47.59359,-54.27349
2021-01-18 19:44:01+00:00,216.0,10.27,215.0,13.26,12.89,47.59359,-54.27349
2021-01-18 19:54:01+00:00,216.0,9.12,217.0,10.28,12.89,47.59359,-54.27349
2021-01-18 20:04:01+00:00,214.0,10.06,214.0,11.37,12.89,47.59359,-54.27349
2021-01-18 20:14:01+00:00,214.0,9.05,214.0,10.58,12.73,47.59359,-54.27349
2021-01-18 20:24:01+00:00,213.0,9.38,209.0,10.4,12.73,47.59359,-54.27349
2021-01-18 20:34:01+00:00,214.0,9.37,218.0,10.71,12.73,47.59359,-54.27349
2021-01-18 20:44:01+00:00,216.0,9.27,211.0,10.28,12.73,47.59359,-54.27349
2021-01-18 20:54:01+00:00,219.0,10.23,215.0,12.32,12.73,47.59359,-54.27349
2021-01-18 21:04:01+00:00,219.0,10.13,220.0,11.58,12.73,47.59359,-54.27349
2021-01-18 21:14:01+00:00,218.0,10.43,218.0,12.15,12.65,47.59359,-54.27349
2021-01-18 21:24:01+00:00,221.0,9.3,224.0,10.57,12.65,47.59359,-54.27349
2021-01-18 21:34:01+00:00,219.0,10.03,223.0,11.64,12.65,47.59359,-54.27349
2021-01-18 21:44:01+00:00,219.0,9.64,226.0,11.2,12.65,47.59359,-54.27349
2021-01-18 21:54:01+00:00,216.0,10.14,215.0,11.35,12.65,47.59359,-54.27349
2021-01-18 22:04:01+00:00,216.0,9.8,217.0,11.33,12.65,47.59359,-54.27349
2021-01-18 22:14:01+00:00,219.0,8.76,218.0,9.75,12.57,47.59359,-54.27349
2021-01-18 22:24:01+00:00,214.0,9.22,213.0,11.24,12.57,47.59359,-54.27349
2021-01-18 22:34:01+00:00,217.0,9.6,220.0,10.67,12.57,47.59359,-54.27349
2021-01-18 22:44:01+00:00,212.0,9.44,211.0,10.47,12.57,47.59359,-54.27349
2021-01-18 22:54:01+00:00,215.0,10.33,212.0,11.67,12.57,47.59359,-54.27349
2021-01-18 23:04:01+00:00,215.0,10.19,214.0,11.54,12.57,47.59359,-54.27349
2021-01-18 23:14:01+00:00,218.0,10.26,219.0,12.02,12.57,47.59359,-54.27349
2021-01-18 23:24:01+00:00,216.0,10.32,216.0,12.06,12.57,47.59359,-54.27349
2021-01-18 23:34:01+00:00,217.0,8.29,212.0,9.57,12.57,47.59359,-54.27349
2021-01-18 23:44:01+00:00,222.0,8.73,230.0,10.65,12.57,47.59359,-54.27349
2021-01-18 23:54:01+00:00,218.0,9.68,225.0,10.82,12.57,47.59359,-54.27349
